Crookston, MN

7:15 PM CST on February 25, 2017 (GMT -0600)
Crookston Municipal-Kirkwood

Weather History for KCKN - January, 2013

Change the Weather History Date:

Wednesday, January 2, 2013

  Actual Average Record
Temperature  
Mean Temperature 14 °F -  
Max Temperature 26 °F 13 °F 33 °F (1997)
Min Temperature 3 °F 0 °F -29 °F (2014)
Degree Days  
Heating Degree Days 50    
Moisture  
Dew Point 10 °F    
Average Humidity 88    
Maximum Humidity 100    
Minimum Humidity 79    
Precipitation  
Precipitation 0.00 in - - ()
Sea Level Pressure  
Sea Level Pressure 29.97 in    
Wind  
Wind Speed 15 mph (NW)    
Max Wind Speed 24 mph    
Max Gust Speed 31 mph    
Visibility 7 miles    
Events Snow    
Averages and records for this station are not official NWS values.
T = Trace of Precipitation, MM = Missing Value Source: NWS Daily Summary

Daily Weather History Graph

Daily Weather History Graph

Search for Another Location

Airport or City:

Trip Planner

Search our weather history database for the weather conditions in past years. The results will help you decide how hot, cold, wet, or windy it might be!

Date:

Astronomy

Jan. 02, 2013 Rise Set
Actual Time 8:15 AM CST 4:46 PM CST
Civil Twilight 7:39 AM CST 5:21 PM CST
Nautical Twilight 7:00 AM CST 6:01 PM CST
Astronomical Twilight 6:22 AM CST 6:38 PM CST
Moon 10:46 PM CST (1/2) 10:33 AM CST (1/2)
Length of Visible Light 9h 42m
Length of Day
8h 30m
Waning Gibbous, 75% of the Moon is Illuminated
Jan 2
Waning Gibbous
Jan 4
Last Quarter
Jan 11
New
Jan 18
First Quarter
Jan 26
Full

Hourly Weather History & Observations

Time (CST) Temp. Windchill Dew Point Humidity Pressure Visibility Wind Dir Wind Speed Gust Speed Precip Events Conditions
12:15 AM 15.8 °F 1.4 °F 14.0 °F 93% 29.85 in 10.0 mi SSW 13.8 mph - N/A   Overcast
12:34 AM 15.8 °F 0.9 °F 14.0 °F 93% 29.85 in 7.0 mi SSW 15.0 mph - N/A   Overcast
12:54 AM 15.8 °F 0.9 °F 12.2 °F 86% 29.84 in 5.0 mi SSW 15.0 mph - N/A   Overcast
1:15 AM 15.8 °F 1.4 °F 12.2 °F 86% 29.83 in 7.0 mi SSW 13.8 mph - N/A   Overcast
1:34 AM 15.8 °F 2.1 °F 12.2 °F 86% 29.83 in 10.0 mi South 12.7 mph - N/A   Overcast
1:54 AM 15.8 °F 2.1 °F 12.2 °F 86% 29.82 in 10.0 mi South 12.7 mph - N/A   Overcast
2:15 AM 15.8 °F 1.4 °F 12.2 °F 86% 29.83 in 10.0 mi South 13.8 mph - N/A   Overcast
2:34 AM 15.8 °F 0.9 °F 12.2 °F 86% 29.83 in 10.0 mi South 15.0 mph - N/A   Overcast
2:54 AM 15.8 °F 1.4 °F 12.2 °F 86% 29.82 in 10.0 mi South 13.8 mph - N/A   Overcast
3:15 AM 15.8 °F 1.4 °F 12.2 °F 86% 29.82 in 10.0 mi South 13.8 mph - N/A   Overcast
3:34 AM 15.8 °F 2.1 °F 14.0 °F 93% 29.82 in 10.0 mi South 12.7 mph - N/A   Overcast
3:55 AM 17.6 °F 4.3 °F 14.0 °F 86% 29.81 in 7.0 mi South 12.7 mph - N/A   Overcast
4:15 AM 17.6 °F 5.0 °F 15.8 °F 93% 29.81 in 10.0 mi South 11.5 mph - N/A   Overcast
4:34 AM 17.6 °F 5.7 °F 15.8 °F 93% 29.81 in 10.0 mi South 10.4 mph - N/A   Overcast
4:55 AM 17.6 °F 5.0 °F 15.8 °F 93% 29.81 in 10.0 mi South 11.5 mph - N/A   Overcast
5:15 AM 17.6 °F 5.7 °F 15.8 °F 93% 29.81 in 10.0 mi South 10.4 mph - N/A   Overcast
5:34 AM 17.6 °F 5.7 °F 15.8 °F 93% 29.81 in 10.0 mi South 10.4 mph - N/A   Overcast
5:55 AM 17.6 °F 5.7 °F 15.8 °F 93% 29.81 in 10.0 mi South 10.4 mph - N/A   Overcast
6:15 AM 17.6 °F 6.4 °F 17.6 °F 100% 29.80 in 10.0 mi South 9.2 mph - N/A   Overcast
6:34 AM 19.4 °F 7.9 °F 17.6 °F 93% 29.81 in 10.0 mi South 10.4 mph - N/A   Overcast
6:55 AM 19.4 °F 11.5 °F 17.6 °F 93% 29.81 in 10.0 mi South 5.8 mph - N/A   Overcast
7:15 AM 21.2 °F 10.9 °F 19.4 °F 93% 29.81 in 10.0 mi SSW 9.2 mph - N/A   Overcast
7:34 AM 21.2 °F 11.7 °F 19.4 °F 93% 29.81 in 10.0 mi SW 8.1 mph - N/A   Overcast
7:55 AM 21.2 °F 13.6 °F 19.4 °F 93% 29.82 in 10.0 mi SW 5.8 mph - N/A   Overcast
8:15 AM 26.6 °F 14.7 °F 21.2 °F 80% 29.82 in 10.0 mi NW 15.0 mph - N/A   Overcast
8:34 AM 24.8 °F 11.1 °F 23.0 °F 93% 29.83 in 4.0 mi NNW 18.4 mph 27.6 mph N/A Snow Light Snow
9:14 AM 21.2 °F 5.6 °F 19.4 °F 93% 29.85 in 4.0 mi NNW 20.7 mph 27.6 mph N/A   Overcast
9:34 AM 19.4 °F 2.5 °F 17.6 °F 93% 29.87 in 3.0 mi NNW 23.0 mph 31.1 mph N/A   Overcast
9:55 AM 19.4 °F 2.1 °F 17.6 °F 93% 29.89 in 2.5 mi NNW 24.2 mph - N/A   Overcast
10:14 AM 17.6 °F 0.9 °F 15.8 °F 93% 29.90 in 2.5 mi North 20.7 mph - N/A Snow Light Snow
10:34 AM 17.6 °F 0.5 °F 15.8 °F 93% 29.91 in 1.5 mi North 21.9 mph - N/A Snow Light Snow
10:55 AM 17.6 °F -0.3 °F 15.8 °F 93% 29.93 in 1.2 mi NNW 24.2 mph - N/A Snow Light Snow
11:14 AM 17.6 °F 1.3 °F 15.8 °F 93% 29.93 in 2.5 mi NNW 19.6 mph - N/A Snow Light Snow
11:34 AM 17.6 °F -0.3 °F 14.0 °F 86% 29.95 in 1.2 mi North 24.2 mph 29.9 mph N/A Snow Light Snow
11:55 AM 15.8 °F -1.9 °F 12.2 °F 86% 29.95 in 3.0 mi NNW 21.9 mph - N/A   Overcast
12:14 PM 15.8 °F -2.3 °F 12.2 °F 86% 29.96 in 3.0 mi NNW 23.0 mph - N/A   Overcast
12:34 PM 15.8 °F -1.5 °F 12.2 °F 86% 29.95 in 4.0 mi NNW 20.7 mph - N/A   Overcast
12:55 PM 15.8 °F -0.6 °F 10.4 °F 79% 29.97 in 7.0 mi NNW 18.4 mph - N/A   Overcast
1:14 PM 15.8 °F -1.1 °F 10.4 °F 79% 29.97 in 3.0 mi NNW 19.6 mph - N/A   Overcast
1:34 PM 15.8 °F -1.5 °F 10.4 °F 79% 29.98 in 1.2 mi NNW 20.7 mph - N/A Snow Light Snow
1:55 PM 14.0 °F -3.0 °F 10.4 °F 86% 29.98 in 1.0 mi NNW 18.4 mph - N/A Snow Light Snow
2:14 PM 14.0 °F -3.9 °F 10.4 °F 86% 29.99 in 1.2 mi NNW 20.7 mph 25.3 mph N/A Snow Light Snow
2:35 PM 14.0 °F -3.0 °F 10.4 °F 86% 30.00 in 2.0 mi NNW 18.4 mph - N/A Snow Light Snow
2:55 PM 14.0 °F -4.3 °F 10.4 °F 86% 30.01 in 1.5 mi NNW 21.9 mph - N/A Snow Light Snow
3:14 PM 12.2 °F -6.7 °F 8.6 °F 85% 30.01 in 1.0 mi NNW 21.9 mph - N/A Snow Light Snow
3:35 PM 12.2 °F -6.3 °F 8.6 °F 85% 30.03 in 10.0 mi NNW 20.7 mph - N/A   Scattered Clouds
3:55 PM 10.4 °F -7.2 °F 6.8 °F 85% 30.04 in 10.0 mi NNW 17.3 mph - N/A   Scattered Clouds
4:14 PM 10.4 °F -8.2 °F 6.8 °F 85% 30.05 in 5.0 mi NNW 19.6 mph - N/A Snow Light Snow
4:35 PM 10.4 °F -8.2 °F 8.6 °F 92% 30.07 in 2.0 mi NNW 19.6 mph - N/A Snow Light Snow
4:55 PM 10.4 °F -7.2 °F 6.8 °F 85% 30.08 in 2.0 mi NNW 17.3 mph - N/A Snow Light Snow
5:14 PM 10.4 °F -9.5 °F 6.8 °F 85% 30.09 in 3.0 mi NNW 23.0 mph - N/A Snow Light Snow
5:35 PM 8.6 °F -10.5 °F 6.8 °F 92% 30.10 in 5.0 mi NNW 19.6 mph - N/A Snow Light Snow
5:55 PM 8.6 °F -10.5 °F 5.0 °F 85% 30.11 in 7.0 mi North 19.6 mph - N/A   Overcast
6:14 PM 8.6 °F -11.4 °F 3.2 °F 79% 30.12 in 10.0 mi North 21.9 mph 26.5 mph N/A   Overcast
6:35 PM 6.8 °F -14.7 °F 3.2 °F 85% 30.14 in 10.0 mi North 24.2 mph - N/A   Overcast
6:54 PM 6.8 °F -12.9 °F 3.2 °F 85% 30.15 in 7.0 mi North 19.6 mph - N/A   Overcast
7:14 PM 6.8 °F -11.8 °F 3.2 °F 85% 30.16 in 7.0 mi North 17.3 mph - N/A   Overcast
7:35 PM 6.8 °F -13.4 °F 3.2 °F 85% 30.16 in 7.0 mi North 20.7 mph - N/A   Overcast
7:54 PM 6.8 °F -12.4 °F 1.4 °F 79% 30.17 in 7.0 mi North 18.4 mph - N/A   Overcast
8:14 PM 5.0 °F -14.2 °F 1.4 °F 85% 30.18 in 7.0 mi North 17.3 mph - N/A   Overcast
8:35 PM 5.0 °F -14.7 °F 1.4 °F 85% 30.18 in 10.0 mi North 18.4 mph - N/A   Overcast
8:54 PM 5.0 °F -14.2 °F 1.4 °F 85% 30.18 in 10.0 mi North 17.3 mph - N/A   Mostly Cloudy
9:14 PM 5.0 °F -14.2 °F 1.4 °F 85% 30.18 in 10.0 mi North 17.3 mph - N/A   Scattered Clouds
9:35 PM 3.2 °F -15.3 °F 1.4 °F 92% 30.19 in 7.0 mi North 15.0 mph - N/A   Mostly Cloudy
9:54 PM 3.2 °F -15.3 °F 1.4 °F 92% 30.20 in 7.0 mi North 15.0 mph - N/A   Mostly Cloudy
10:14 PM 3.2 °F -14.6 °F 1.4 °F 92% 30.20 in 10.0 mi North 13.8 mph - N/A   Scattered Clouds
10:35 PM 3.2 °F -14.6 °F -0.4 °F 85% 30.21 in 10.0 mi North 13.8 mph - N/A   Scattered Clouds
10:54 PM 3.2 °F -13.9 °F -0.4 °F 85% 30.21 in 10.0 mi NNW 12.7 mph - N/A   Clear
11:14 PM 3.2 °F -13.9 °F -0.4 °F 85% 30.22 in 10.0 mi NNW 12.7 mph - N/A   Clear
11:35 PM 3.2 °F -13.1 °F -0.4 °F 85% 30.23 in 10.0 mi NNW 11.5 mph - N/A   Clear
11:54 PM 3.2 °F -14.6 °F -0.4 °F 85% 30.24 in 10.0 mi NNW 13.8 mph - N/A   Clear